Regional Weather Roundup
Issued by NWS

Home | Current Version | Previous Version | Text Only | Print | Product List | Glossary Off
Versions: 1 2 3 4 5 6 7 8 9 10 11 12 13 14 15 16 17 18 19 20 21 22 23 24 25 26 27 28 29 30 31 32 33 34 35 36 37 38 39 40 41 42 43 44 45 46 47 48 49 50

000
ASUS43 KMKX 240321
RWRWI

WISCONSIN REGIONAL WEATHER ROUNDUP
NATIONAL WEATHER SERVICE MILWAUKEE/SULLIVAN WI
1000 PM CDT SUN JUL 23 2017

NOTE: "FAIR" INDICATES FEW OR NO CLOUDS BELOW 12,000 FEET WITH NO
SIGNIFICANT WEATHER AND/OR OBSTRUCTIONS TO VISIBILITY.

WIZ001-002-006>008-014>016-023>028-240400-
NORTHWEST WISCONSIN

CITY           SKY/WX    TMP DP  RH WIND       PRES   REMARKS
SUPERIOR ARPT  NOT AVBL
ASHLAND        FOG       50  50 100 CALM      30.04S VSB 1/4
HAYWARD        CLOUDY    60  55  83 N7        30.04R
SIREN          MOCLDY    61  58  91 E3        30.03R
CUMBERLAND     CLOUDY    61  54  77 NE7       30.03R
RICE LAKE      CLOUDY    63  56  77 N6        30.04R
CHETEK         CLOUDY    64  58  79 N7        30.02R
LADYSMITH      PTCLDY    59  56  88 N6        30.03S
EAU CLAIRE     CLOUDY    65  57  75 N7        29.98S
MENOMONIE      CLOUDY    65  57  74 N5        30.01S
NEW RICHMOND   CLEAR     62  56  80 E5        30.02R
OSCEOLA        CLEAR     62  57  86 NE5       30.04S
$$

WIZ003>005-009-010-017-018-240400-
NORTH CENTRAL WISCONSIN

CITY           SKY/WX    TMP DP  RH WIND       PRES   REMARKS
MANITOWISH WTR CLEAR     55  55 100 CALM      30.03S
ARBOR VITAE    CLEAR     58  55  91 CALM      30.02S
WOODRUFF       CLEAR     58  55  91 CALM      30.02S
RHINELANDER    CLEAR     57  56  96 N3        30.02S
EAGLE RIVER    CLEAR     55  54  97 CALM      30.02S
LAND O LAKES   CLEAR     55  53  94 CALM      30.05R
PHILLIPS       CLOUDY    61  57  86 NE6       30.02S
TOMAHAWK         N/A     59  53  81 N3        30.02S
MEDFORD        CLOUDY    61  55  79 NE9       30.00R
MERRILL        NOT AVBL
$$

WIZ029-030-035-036-043>047-240400-
CENTRAL WISCONSIN

CITY           SKY/WX    TMP DP  RH WIND       PRES   REMARKS
WAUSAU         PTCLDY    64  54  69 NE7       29.97S
MOSINEE        MOCLDY    64  55  72 NE10      29.99R
MARSHFIELD     CLOUDY    65  56  72 NE15      29.96R
STEVENS POINT  CLEAR     62  54  73 NE12      29.97R
WAUPACA        CLEAR     66  55  69 N6        29.96R
WAUTOMA        CLEAR     67  57  70 NE13G21   29.94R
WISC RAPIDS    CLEAR     67  57  70 NE8       29.96R
CAMP DOUGLAS   CLEAR     64  60  85 NW6       29.94R
$$

WIZ011>013-019>022-031-037>040-048>050-240400-
NORTHEAST WISCONSIN

CITY           SKY/WX    TMP DP  RH WIND       PRES   REMARKS
ANTIGO         CLEAR     56  54  90 N6        30.00R
SHAWANO        CLEAR     64  56  75 NE13      29.95S
OCONTO         CLOUDY    63  55  76 N12       29.94S
STURGEON BAY   LGT RAIN  63  59  87 N17G23    29.93S
GREEN BAY      CLOUDY    64  58  80 N14       29.93S
MANITOWOC      CLOUDY    64  58  80 N8        29.92R
APPLETON       PTCLDY    63  52  67 N15       29.93R
CLINTONVILLE   CLEAR     63  54  72 N7        29.96R
OSHKOSH        CLOUDY    66  57  72 N17G24    29.93R
$$

WIZ032>034-041-042-053>061-240400-
SOUTHWEST WISCONSIN

CITY           SKY/WX    TMP DP  RH WIND       PRES   REMARKS
LA CROSSE      CLEAR     68  61  78 N9        29.95R
SPARTA         CLEAR     65  58  76 N7        29.96R
VIROQUA        CLEAR     64  62  92 CALM      29.95S
BOSCOBEL       CLEAR     70  60  70 CALM      29.92R
PRAIRIE DU CHI CLEAR     70  58  66 N5        29.92R
PLATTEVILLE    CLEAR     67  65  93 N5        29.92R
$$

WIZ056-057-062-063-064-067-068-240400-
SOUTH CENTRAL WISCONSIN

CITY           SKY/WX    TMP DP  RH WIND       PRES   REMARKS
REEDSBURG      CLEAR     68  62  79 N7        29.92R
BARABOO/DELLS  MOCLDY    69  59  70 N7        29.92R
LONE ROCK      CLEAR     71  60  68 NW6       29.91R
MINERAL POINT  CLEAR     70  64  83 N8        29.92R
MADISON        PTCLDY    70  61  73 NW7       29.88R
MIDDLETON      MOCLDY    68  63  84 NW6       29.90S
WATERTOWN      CLOUDY    71  67  89 NE12G20   29.89R
MONROE         CLEAR     70  61  73 NW6       29.89S
JANESVILLE     CLEAR     68  66  94 NW5       29.87R
$$

WIZ051-052-058>065-066-070>072-240400-
SOUTHEAST WISCONSIN

CITY           SKY/WX    TMP DP  RH WIND       PRES   REMARKS
MILWAUKEE      MOCLDY    69  64  84 N16G22    29.88S
WAUKESHA       NOT AVBL
MILWAUKEE/TIMM CLOUDY    68  59  73 NE13      29.90R
RACINE         PTCLDY    68  64  87 NE14      29.89S
KENOSHA        MOCLDY    71  66  84 NE15      29.87R
FOND DU LAC    MOCLDY    67  57  70 N17G25    29.93R
SHEBOYGAN      PTCLDY    64  59  83 N12       29.91R
WEST BEND      CLOUDY    64  63  94 NE8       29.91R
JUNEAU         CLOUDY    67  62  84 NE12G18   29.91R
$$

LSZ147-162-240400-
LAKE SUPERIOR

STATION/POSITION TIME  TEMP    WIND        PRES    WAVE
                       AIR SEA DIR/SP/G            HT/PER
                 (UTC) (F)     (DEG/KT/KT) (MB)    (FT/S)
W MID LAKE BUOY  0250   50 48  300/  6/  6 1016.9R   1/ 4
DEVILS ISLAND    0300   56     330/  4/  4 1017.4R
SAXON HARBOR     0230   57     130/  3/  4 1016.3S
$$

LMZ867-665-643>646-240400-
LAKE MICHIGAN

STATION/POSITION TIME  TEMP    WIND        PRES    WAVE
                       AIR SEA DIR/SP/G            HT/PER
                 (UTC) (F)     (DEG/KT/KT) (MB)    (FT/S)
CHAMBERS ISLAND  0240   65     340/ 16/ 22 1013.5R
S GREEN BAY BUOY 0300   65 72   10/ 19/ 23 1013.3
N MID LAKE BUOY  0250   62 66   50/ 19/ 23 1013.2R   4/ 5
NORTHPORT PIER   0240   63      10/ 15/ 18 1013.9R
KEWAUNEE LAKESHO 0300   64     360/  7/ 10 1012.4
SHEBOYGAN LAKESH 0300   66      10/ 27/ 29 1011.8R
PORT WASHINGTON  0240   68      20/  8/ 15 1012.9R
ATWATER BUOY     0209   69 69   40/ 19/ 23 1011.7R
MILWAUKEE LAKESH 0300   68      20/ 14/ 18   N/A
S MID LAKE BUOY  0250   70 71   10/ 19/ 23 1010.2R   2/ 3
KENOSHA   LAKESH 0300   70      30/ 21/ 24 1011.2
$$

TC  - TEMPERATURE IN CELSIUS
VSB - VISIBILITY IN STATUTE MILES
WCI - WIND CHILL INDEX
HX  - HEAT INDEX




USA.gov is the U.S. government's official web portal to all federal, state and local government web resources and services.